Showing default

BRO-11, 58264

Orbit data source: Space-Track

BRO-11, 58264 is a payload satellite owned by Unseen Labs (FR) in SSO that was launched on Sat, 11 Nov 2023 UTC via an FALCON 9 launch vehicle from the Air Force Western Test Range (AFWTR). Payload-class satellites include a variety of spacecraft equipped with specific instruments for various scientific and technological missions. These include communications satellites like Starlink; space stations such as the ISS; scientific satellites like the Hubble; Earth observation satellites from companies like Planet Labs, Umbra, and HawkEye 360; GPS; miniature CubeSats for education and research; and military/defense satellites.

Loading next visibility...
Identifier
58264, 2023-174J
Orbit
SSO
Country
Flag of FRFR
Related business
Manufacturer
GOMSpace
Mission
Operational Commercial Sigint
Bus & Motor
CUBESAT 6U, Unknown motor
Mass
10 kg wet, ~10 kg dry
Launch date (UTC)
2023-11-11 (2 years ago)
Launch vehicle
FALCON 9
Launch site
Air Force Western Test Range (AFWTR)
Object type
Payload
Rocket body
Debris
Shape & HBR
Box, 0.1 m
Radar Cross Section
0.080 m², Medium (>0.1 m² and < 1m²)

Expand to show TLE details & history
Last TLE update: 5 hours ago

TLE from 5 hours ago
0 BRO-11
1 58264U 23174J   25343.64405431  .00010447  00000-0  42100-3 0  9992
2 58264  97.4109  57.3535 0011669 150.5009 209.6889 15.24964491115844
Epoch: 2025-12-09T15:27Z
TLE epoch observation values (Epoch: 2025-12-09T15:27:26.292Z)
Latitude
-0.00007°
Longitude
106.86818°
Altitude
500.956 km
Speed
7.61 km/s
True Right ascension
03h 49m 24s
True Declination
0° 00' 00"
Sunlit
Object was in full shadow at epoch
Visualization orbit readout
Latitude
Unknown
Longitude
Unknown
Altitude
Unknown
Speed
Unknown
Apparent Right ascension
Unknown
Apparent Declination
Unknown
Sunlit
N/A
Visualization observer readout
Local Sidereal Time
18:34:31
Azimuth
Unknown
Elevation
Unknown
Doppler factor
Unknown
Orbital elements
Apogee altitude
495.863 km
Perigee altitude
479.84 km
Semi-major axis
6,865.988 km
Eccentricity
0.00117
Inclination
97.4109°
RAAN
57.3535°
Arg. of periapsis
150.5009°
True anomaly
209.62276°
Mean anomaly
209.6889°
Eccentric anomaly
209.65582°
Mean motion
3.81495 °/min
Orbital period
94.37 mins
BSTAR
0.000421
Loading maneuver chart data...
Computing Atmospheric mass density...
Loading historical data...
Loading historical data...
Loading historical data...
Loading historical data...
Loading historical data...
Loading historical data...
Loading historical data...

Documentation

Showing up to 5 results
|